GFSNW_700_spd_000.txt.gz
Wind_Speed
16 17 15 17 21 21 20 18 7 9 21 21 14 7 7 7 8 14 11 7 7 7 7 6 4 6 5 3 6 2 4 5 5 3 5 1 3 2 2 1 1 2 1 11
16 18 16 18 21 22 23 11 8 12 23 13 16 9 8 7 8 8 5 5 8 8 7 5 8 6 4 2 4 6 5 1 1 6 2 3 1 2 3 4 5 7 4 6
16 18 18 19 22 24 21 10 8 21 26 8 16 9 8 12 12 12 7 6 6 9 6 4 8 4 4 4 2 3 4 2 1 2 5 8 10 10 10 12 11 12 14 18
17 17 20 19 22 27 21 6 9 19 26 12 11 12 9 10 12 7 7 6 6 8 6 7 6 5 1 2 1 3 3 5 3 5 8 9 11 14 13 15 16 17 20 17
17 17 18 21 21 22 19 8 8 17 7 17 10 14 11 12 9 8 10 7 8 8 6 4 7 6 3 1 2 2 2 2 8 9 3 7 13 16 16 16 17 14 15 17
19 17 17 18 20 19 15 15 12 13 16 12 13 16 10 12 15 13 9 10 13 14 13 16 16 13 11 7 3 4 3 4 8 3 12 14 3 4 2 5 7 11 13 14
21 19 18 17 18 19 18 16 13 13 13 14 17 10 12 14 11 10 12 13 18 20 12 9 9 7 5 5 6 4 2 3 5 6 7 3 1 11 14 13 11 9 10 11
22 20 19 18 17 16 14 12 14 13 13 13 12 12 14 16 14 16 18 16 15 11 11 9 5 5 3 4 3 2 1 3 4 2 4 14 7 6 4 7 13 12 13 19
23 21 20 18 16 14 13 13 13 11 11 15 12 14 20 20 23 20 15 16 13 13 12 10 6 4 5 5 4 5 3 4 4 5 2 4 4 6 12 18 17 15 19 21
24 22 20 18 16 14 12 11 13 12 12 13 14 17 20 16 14 13 14 14 14 14 14 11 9 5 7 6 7 5 6 7 9 7 7 10 10 11 14 9 10 18 25 32
24 22 20 19 17 15 14 12 12 12 14 11 19 17 15 14 12 15 15 15 17 16 15 11 11 9 10 11 7 6 6 5 5 5 6 8 9 9 14 16 21 33 29 29
26 23 21 19 19 18 16 15 13 12 12 9 14 18 18 18 18 15 16 10 12 12 10 13 10 11 11 13 8 7 10 13 10 10 10 10 22 23 29 32 29 33 30 30
28 25 22 21 20 20 19 16 15 14 13 12 13 16 17 17 19 17 16 17 13 17 18 15 14 15 14 18 18 16 16 15 18 19 25 21 23 26 30 30 29 30 32 26
31 28 25 23 22 22 21 20 18 18 16 17 16 13 17 15 17 18 19 20 18 21 19 20 22 24 20 24 22 19 21 19 24 23 25 23 28 34 31 33 28 31 23 20
31 30 28 26 25 24 24 22 21 20 20 13 17 20 18 18 18 19 20 20 20 21 21 23 24 25 23 28 29 32 27 29 25 26 23 27 30 32 33 31 34 29 20 24
28 29 29 29 28 26 26 26 26 24 24 23 24 21 19 20 23 23 21 21 21 23 24 25 24 26 23 22 29 34 28 21 25 29 33 35 30 29 31 27 22 21 25 25
25 26 27 27 29 29 30 30 27 27 26 26 25 22 27 23 23 25 24 25 24 22 23 27 26 26 26 32 38 35 31 29 20 31 32 30 28 26 19 18 21 25 20 24
28 27 25 25 27 29 30 28 27 23 25 27 26 19 20 22 27 29 28 30 29 30 31 33 32 28 26 32 35 34 32 24 30 32 25 25 23 17 20 22 22 22 22 28
29 28 27 27 29 30 28 27 27 29 28 23 30 29 24 26 29 27 26 28 30 31 35 35 33 37 34 36 31 32 23 29 30 26 25 19 20 18 18 21 23 26 31 34
32 30 29 32 33 27 27 27 29 32 34 39 40 33 30 28 24 22 24 27 24 23 33 30 35 46 44 39 38 38 36 31 27 25 21 20 20 18 21 24 28 31 33 35
34 34 34 34 32 27 28 26 25 30 37 38 45 45 39 35 29 25 22 21 12 19 26 23 27 38 36 28 25 24 24 24 22 22 22 19 18 22 26 29 31 32 35 35
25 32 34 30 21 18 22 21 24 28 27 36 34 33 38 37 35 30 25 27 15 16 23 14 22 25 21 18 12 11 12 17 19 19 17 19 23 27 29 31 31 33 35 36
23 31 33 24 19 19 9 15 15 25 36 36 38 35 29 28 30 26 20 14 15 22 14 10 15 16 11 9 8 12 15 15 14 15 20 24 26 29 30 31 32 35 37 37
17 11 12 12 7 10 14 19 19 23 23 32 29 21 19 27 26 23 10 13 10 8 7 7 8 11 11 10 9 11 12 11 15 21 23 26 28 30 30 31 34 36 37 37
9 7 6 8 9 8 10 15 19 18 21 18 19 24 27 23 15 10 10 7 6 7 5 8 6 5 7 7 10 13 14 19 21 24 28 30 30 30 32 33 35 35 35 34
5 5 3 4 5 7 9 9 9 9 13 17 16 11 6 4 5 6 6 4 4 3 5 11 9 11 11 12 12 15 19 22 25 28 31 30 30 32 34 34 33 33 32 30
3 6 6 5 5 6 7 7 5 6 5 5 4 4 3 1 0 2 1 5 11 12 13 14 12 12 12 14 17 21 23 26 29 28 28 30 31 33 34 33 32 31 29 29

GFSNW_700_spd_006.txt.gz
Wind_Speed
24 26 27 28 31 30 29 25 22 22 22 23 25 18 6 6 12 15 13 11 9 16 16 16 14 8 7 7 8 14 10 11 9 7 6 6 3 3 1 1 2 2 4 4
25 26 27 29 31 32 29 24 21 19 24 26 27 10 7 10 7 16 15 12 13 14 14 10 7 7 8 8 9 13 14 9 8 4 4 4 3 3 3 3 4 6 3 3
25 26 27 29 31 32 30 28 20 20 24 25 26 11 10 10 12 11 16 13 12 15 13 11 8 10 9 9 11 11 10 13 7 7 5 5 7 6 4 8 10 11 16 12
27 27 27 30 32 33 33 25 17 20 26 28 27 13 9 13 15 13 13 15 13 15 15 13 13 11 12 10 11 12 9 9 8 8 9 9 11 10 12 12 10 12 13 15
27 26 27 32 33 36 28 20 18 15 12 23 25 17 13 7 17 14 12 10 15 15 14 14 14 11 12 10 13 13 11 9 9 9 9 8 9 10 10 13 17 18 17 15
27 26 28 34 39 34 24 23 17 18 26 22 23 20 14 13 9 9 11 12 14 12 12 10 9 8 7 6 9 10 10 9 8 5 9 8 5 10 6 8 11 13 14 18
27 26 28 35 40 31 15 17 18 21 29 24 21 17 20 14 17 11 12 11 14 15 13 12 10 10 9 9 9 9 9 8 7 4 6 0 7 10 8 11 16 20 21 20
25 27 28 36 35 24 18 16 19 23 18 26 21 20 18 16 15 13 12 13 14 16 14 13 12 13 13 14 14 13 11 10 6 4 8 10 10 15 14 10 14 17 18 19
26 26 27 29 31 27 20 14 16 15 19 20 21 19 18 19 17 15 17 19 19 15 17 15 11 8 9 6 6 15 14 14 11 8 4 6 9 15 15 13 17 10 11 19
26 26 25 26 26 24 20 17 15 14 14 17 19 20 17 17 17 17 20 21 19 17 18 18 15 12 9 7 9 9 17 17 17 16 10 9 16 16 15 11 12 13 20 20
26 24 24 25 23 20 19 17 15 14 13 18 21 19 19 18 17 15 17 19 18 17 16 15 14 13 15 15 15 14 14 12 14 13 10 11 12 18 19 20 23 24 23 26
25 24 23 22 21 20 18 17 15 14 14 14 17 16 17 17 16 15 17 16 14 11 11 15 12 13 14 19 19 20 19 23 18 16 11 15 20 25 23 23 25 27 27 28
24 23 22 22 21 20 18 16 15 14 12 11 16 18 17 15 14 13 13 14 15 15 16 17 15 16 17 19 20 23 23 22 22 25 28 25 25 26 24 27 28 29 30 31
24 23 23 22 21 20 19 18 16 14 13 13 15 17 18 17 15 15 15 15 14 14 15 17 19 21 18 22 23 22 21 21 24 28 28 28 26 26 31 34 30 31 31 34
25 24 23 22 22 21 20 18 17 15 14 7 14 14 15 16 16 16 16 17 17 18 19 22 21 22 24 28 29 31 27 27 28 32 28 32 34 34 31 30 33 35 38 36
26 25 24 24 23 22 20 19 18 17 17 16 16 14 15 17 18 17 17 19 21 22 23 24 25 24 24 24 33 31 23 22 23 27 28 31 29 28 30 33 35 36 33 34
26 26 26 25 24 22 22 20 19 19 19 19 20 21 22 20 19 18 20 21 23 24 27 28 27 26 29 35 38 32 30 30 30 30 31 32 31 30 31 33 36 35 27 22
28 28 27 26 26 25 25 24 23 21 20 22 21 14 20 21 21 21 22 24 23 26 28 31 29 31 32 40 38 35 32 31 30 29 29 29 28 31 32 37 32 22 20 20
26 27 26 27 26 26 25 25 25 26 27 26 29 27 24 25 23 22 23 23 26 29 34 35 34 37 39 41 38 37 36 35 32 30 30 30 31 33 37 22 15 18 21 22
22 20 21 23 23 23 23 24 25 29 31 32 33 31 27 25 23 23 23 25 25 24 30 29 35 45 43 40 36 36 32 30 29 30 30 32 36 36 13 12 18 21 20 26
25 23 23 21 20 20 20 19 16 19 23 30 35 34 32 29 28 26 27 25 21 25 26 27 32 43 39 35 33 31 28 25 26 26 25 28 19 13 11 16 16 22 26 30
25 27 27 24 22 17 13 16 16 15 17 21 20 22 25 30 30 31 29 31 22 17 26 23 28 33 28 25 23 22 24 24 24 28 24 14 13 10 8 15 20 26 31 31
13 15 15 10 12 12 12 15 11 16 24 17 17 18 18 20 21 23 18 15 18 23 17 18 22 23 18 13 16 19 23 22 15 7 8 8 6 12 20 25 29 32 29 29
18 15 14 11 8 10 12 15 17 22 21 20 22 22 18 20 18 18 9 13 11 8 7 8 16 12 15 14 12 9 3 3 7 7 9 13 16 21 26 29 29 27 28 29
9 7 6 10 9 8 7 10 12 14 15 13 11 16 19 16 12 8 10 6 6 6 4 6 8 9 10 3 1 4 5 6 7 9 12 17 24 27 28 27 26 27 28 29
8 7 5 5 6 8 9 11 12 13 12 12 11 15 11 14 9 6 6 3 3 5 8 9 6 3 5 5 6 4 5 9 13 16 20 25 28 28 26 25 27 28 29 31
5 6 7 5 4 5 5 6 6 4 4 7 7 6 9 5 4 4 4 4 4 4 5 5 4 6 6 4 9 12 12 15 19 24 27 27 26 26 27 29 28 30 30 30

GFSNW_700_spd_009.txt.gz
Wind_Speed
36 37 36 35 35 35 33 31 29 29 27 27 29 23 8 9 7 16 13 17 10 12 19 16 12 10 7 10 12 13 12 9 11 7 8 6 4 3 3 1 4 4 2 5
36 36 36 36 36 37 35 31 28 29 28 31 32 22 8 12 9 12 15 11 12 14 19 17 14 11 8 8 9 13 13 10 10 5 6 7 6 6 5 3 5 7 3 4
35 35 36 36 37 36 34 31 28 29 31 31 33 20 11 13 10 10 13 14 11 15 15 10 10 10 9 10 11 14 15 14 10 11 6 9 8 10 9 9 8 9 15 13
33 33 35 36 37 37 36 34 26 33 35 34 30 22 13 13 11 13 15 13 14 15 15 12 11 10 11 11 11 13 15 11 13 9 8 8 10 13 15 17 16 15 17 18
32 33 34 36 38 38 37 32 22 30 14 31 32 23 15 14 12 11 11 13 16 15 14 14 10 14 13 12 13 15 15 8 12 11 11 12 13 14 16 18 19 21 22 24
32 32 33 35 38 38 38 30 24 27 19 31 34 26 18 10 13 16 12 9 11 13 13 11 8 10 8 10 11 14 13 11 12 6 11 11 13 18 16 14 17 17 21 19
32 31 32 36 38 37 31 25 25 25 24 32 32 23 20 15 12 8 8 10 13 12 10 9 9 8 7 7 9 12 12 12 10 5 6 1 12 12 16 17 17 17 20 22
32 29 32 36 38 38 24 26 22 24 27 27 27 25 20 16 15 15 9 8 11 11 12 10 9 9 9 13 13 13 14 13 9 5 10 11 12 16 19 19 19 17 18 18
30 28 34 37 43 42 29 19 23 18 30 27 24 22 17 20 17 16 13 11 14 14 17 14 10 6 6 5 5 15 18 18 17 11 5 6 10 11 15 20 25 19 14 11
30 29 34 43 37 28 23 16 21 23 26 24 26 23 20 18 19 17 16 15 17 17 19 17 15 13 12 7 8 9 15 19 20 20 13 11 17 17 17 15 17 10 16 20
30 30 32 42 37 28 19 17 16 18 21 21 22 21 19 18 16 15 15 17 19 20 17 17 17 12 14 16 19 16 14 11 15 17 14 14 19 20 20 18 16 23 24 24
32 31 31 30 28 24 20 19 18 18 18 17 20 18 17 15 15 14 13 14 13 13 12 17 14 13 14 17 20 20 21 22 18 18 16 18 16 12 23 24 26 28 26 28
27 31 31 29 27 25 23 20 19 17 17 15 19 19 17 18 17 16 16 16 18 17 15 15 15 17 17 18 19 22 24 21 26 27 28 27 27 30 30 31 31 26 30 31
28 27 25 25 26 24 23 21 19 18 16 14 19 19 19 18 17 15 15 14 15 16 17 18 19 20 17 20 22 21 22 23 26 29 27 30 32 31 29 28 29 35 33 29
27 27 26 25 24 23 22 20 18 17 16 13 16 18 19 19 18 17 16 16 16 17 18 19 20 21 23 27 28 29 28 27 28 31 25 27 29 28 30 34 34 31 31 31
28 26 25 24 23 23 22 21 20 18 16 13 13 16 18 18 16 16 16 17 18 20 21 22 24 24 25 24 30 29 24 23 23 28 26 30 32 32 31 30 30 31 32 31
27 26 24 24 23 23 22 21 19 19 18 17 17 16 17 16 16 16 17 17 19 21 24 27 27 28 30 35 37 25 26 29 30 29 29 31 28 30 30 31 31 31 31 34
26 26 25 23 22 22 21 20 18 17 19 19 17 11 16 17 18 18 19 21 22 26 28 29 28 31 33 40 33 30 31 30 30 30 31 32 30 31 32 32 34 34 38 24
26 25 25 25 24 24 22 21 21 21 22 20 22 23 21 21 20 20 20 22 25 28 32 31 32 37 40 40 38 37 35 35 35 33 34 33 31 32 31 33 38 40 23 17
26 26 26 25 25 23 23 23 24 26 28 28 27 26 24 23 22 21 21 24 24 25 28 29 34 42 40 38 37 36 33 31 30 31 31 31 32 32 32 37 36 19 19 13
22 23 24 23 21 23 23 21 17 18 24 27 32 30 28 26 25 23 21 19 17 23 24 26 30 35 33 34 33 32 30 27 26 27 28 29 27 31 25 16 19 11 12 18
22 21 19 19 17 13 12 12 12 12 13 14 14 17 22 27 26 24 22 21 13 13 18 19 25 30 30 28 28 27 28 27 25 26 25 28 28 21 13 7 8 14 20 26
24 24 21 14 14 15 12 13 9 13 16 16 16 13 14 15 14 12 12 11 15 21 16 17 23 28 26 27 23 19 22 20 18 15 15 16 12 5 12 16 18 23 28 30
16 18 14 13 7 10 14 16 20 22 20 17 15 14 8 11 10 12 7 10 10 8 7 7 16 13 10 9 10 12 11 9 7 3 5 8 13 16 17 21 27 31 31 30
12 9 7 12 11 11 10 13 14 15 17 15 13 15 18 15 11 7 8 5 5 6 5 6 6 10 10 8 6 4 7 12 12 13 12 14 16 19 25 29 31 30 28 29
10 8 6 6 9 10 10 9 8 9 11 11 11 10 7 12 8 7 8 5 6 7 9 11 9 7 5 6 7 2 3 8 10 12 15 17 21 27 29 27 27 29 30 31
7 8 10 8 8 7 6 6 8 8 8 9 9 7 9 5 5 5 5 7 9 8 10 12 13 10 6 6 7 10 13 13 13 16 21 25 26 26 26 28 29 31 32 33

GFSNW_700_spd_012.txt.gz
Wind_Speed
48 47 44 42 39 37 37 37 35 32 33 28 28 29 17 8 7 19 18 17 13 12 17 16 15 11 7 10 13 13 14 8 11 12 8 9 7 6 5 3 3 3 2 7
48 47 45 43 42 39 37 36 36 33 31 31 29 32 15 9 9 14 15 16 17 10 13 16 15 12 9 7 12 12 13 7 8 5 8 12 10 9 8 6 7 7 2 5
47 46 46 43 42 40 36 35 32 33 33 32 33 33 16 10 10 10 11 12 12 12 15 18 9 13 10 8 9 12 14 9 11 11 4 9 12 12 11 9 6 7 17 18
46 46 44 44 43 41 38 37 33 36 35 35 33 34 14 13 12 12 11 12 11 12 13 13 9 9 10 10 10 12 13 10 17 11 9 10 11 12 14 16 16 16 19 21
44 43 43 44 43 43 41 39 30 34 21 33 34 36 19 17 14 10 11 12 13 13 11 10 9 10 12 10 10 12 13 9 11 14 13 13 14 16 18 20 21 23 23 25
40 41 43 44 45 43 41 37 33 27 32 25 35 38 23 17 15 11 9 8 14 15 13 11 9 9 9 9 10 10 13 13 9 8 14 15 15 20 21 23 23 22 23 19
38 38 41 43 44 42 39 36 29 23 27 26 35 34 27 16 12 14 13 10 9 10 6 6 6 5 5 6 8 9 11 12 10 6 7 1 17 17 17 18 18 22 23 20
36 37 38 40 41 41 38 32 24 24 21 22 32 35 26 21 16 12 8 8 9 8 7 7 6 8 9 11 12 11 12 12 9 6 12 16 14 16 17 20 21 23 23 20
35 35 35 37 39 40 36 27 25 25 22 25 31 31 27 23 18 18 14 10 9 12 11 12 8 4 4 4 4 8 15 16 16 11 6 6 10 12 12 18 29 27 22 19
33 32 33 36 39 38 34 26 22 18 20 24 30 28 26 23 21 19 17 15 14 14 14 15 15 12 10 7 8 11 11 13 19 21 16 14 18 20 19 14 22 14 11 14
29 29 33 36 39 41 36 26 26 17 21 23 25 24 23 21 19 19 18 18 17 15 18 18 16 11 14 14 18 17 15 9 12 13 11 12 17 20 19 18 17 19 22 25
27 30 35 38 42 38 30 19 18 17 20 19 21 21 21 19 17 17 14 13 10 10 13 17 15 16 17 18 18 19 17 19 15 14 14 19 24 25 23 22 24 29 30 31
29 29 31 32 32 26 16 12 15 17 17 18 22 21 19 20 18 18 16 15 16 16 15 15 15 16 17 18 19 21 21 19 24 27 26 25 24 27 28 29 32 31 31 30
31 30 30 28 30 24 23 20 17 18 18 15 21 20 19 19 20 18 18 17 16 16 17 18 20 21 19 20 21 18 18 21 26 30 29 28 26 26 27 29 30 29 29 31
30 30 31 32 31 27 22 20 20 19 18 17 19 20 20 19 19 18 16 16 17 18 20 21 20 21 22 25 25 24 26 24 26 28 21 23 25 25 28 30 30 30 32 33
25 25 30 27 26 24 23 21 20 19 19 9 18 18 21 20 19 17 16 16 17 19 19 21 22 23 24 20 23 26 24 23 23 27 26 28 29 28 27 29 29 30 30 29
24 24 25 26 26 25 23 22 21 20 18 17 13 13 18 18 17 17 16 16 17 18 21 23 24 26 28 33 34 23 24 26 26 27 29 31 29 31 31 31 30 29 27 26
21 21 22 23 23 23 22 21 18 19 18 17 13 10 13 15 17 17 17 19 20 23 26 26 27 30 30 37 33 31 29 30 30 32 33 35 35 35 35 34 32 30 28 31
26 25 23 22 22 21 20 19 18 17 17 16 15 17 15 14 14 16 18 21 24 27 29 29 30 33 31 30 35 35 34 35 36 34 33 33 33 33 32 30 30 29 28 36
26 25 24 23 21 20 19 19 19 21 21 21 19 17 17 17 18 19 20 22 23 23 26 25 28 34 33 34 35 35 32 30 29 30 29 29 31 30 28 29 29 32 28 26
25 24 23 21 19 20 20 18 16 18 21 21 24 23 24 24 23 22 21 16 14 18 18 21 25 29 30 29 29 29 29 28 26 27 28 27 25 25 24 29 29 21 18 10
22 21 20 20 20 17 14 13 13 13 14 16 16 21 24 27 25 21 17 17 12 11 13 14 16 25 23 22 24 25 26 30 27 24 23 23 21 22 22 21 11 9 17 23
19 19 18 13 14 13 11 13 10 14 19 18 14 14 14 15 13 14 13 10 13 16 11 10 17 21 23 21 22 22 19 20 21 18 17 14 14 5 7 14 20 22 23 25
21 19 16 11 8 9 15 19 20 18 15 13 12 15 10 14 11 12 7 10 9 8 9 11 16 13 8 10 12 12 8 5 6 7 9 12 16 18 20 21 22 25 27 27
14 13 10 14 14 10 9 13 15 15 14 12 12 13 11 10 10 7 8 6 7 7 7 10 10 8 10 9 9 8 9 7 6 9 13 16 17 16 18 21 25 25 25 27
9 7 5 7 10 10 9 9 10 12 13 13 14 13 7 12 8 9 9 6 7 8 10 10 11 10 10 8 8 9 8 8 12 16 16 17 20 23 25 26 27 28 29 30
6 6 9 7 8 9 10 10 10 11 12 15 12 7 9 6 7 8 8 10 11 9 8 9 10 11 12 12 12 11 13 13 13 16 19 21 21 22 23 24 26 28 30 33

GFSNW_700_spd_015.txt.gz
Wind_Speed
55 54 52 49 46 44 45 44 39 36 34 30 30 27 25 9 8 17 19 17 10 12 13 14 12 11 6 6 12 14 14 8 7 12 8 10 11 9 8 4 4 5 3 7
56 54 52 51 49 45 46 45 36 37 35 34 30 29 26 14 10 15 18 17 14 10 12 16 15 13 11 9 9 11 14 9 6 4 10 14 14 14 12 10 8 7 4 4
56 54 54 51 47 45 44 43 32 38 35 35 32 29 27 15 11 11 13 15 16 15 10 14 12 17 12 10 10 14 14 15 11 14 6 9 18 18 16 13 7 9 17 20
56 55 54 51 47 45 45 43 33 42 40 37 34 29 27 17 12 10 13 12 12 13 11 16 15 12 13 12 11 13 15 15 16 15 12 9 12 14 16 18 18 16 20 21
55 55 54 52 49 47 45 38 34 35 18 35 32 31 26 22 13 11 11 11 12 12 10 11 10 7 9 11 11 13 14 11 14 15 16 14 15 16 18 20 23 26 25 25
54 54 54 53 51 49 46 36 30 31 38 22 34 34 33 20 16 12 11 11 13 13 11 10 9 9 10 10 11 11 13 14 11 8 14 16 15 23 24 25 24 24 26 21
51 52 53 52 51 47 43 35 34 26 28 32 31 32 31 22 16 14 12 10 10 13 11 8 6 7 7 8 9 10 10 12 11 6 7 3 16 18 18 18 17 20 21 22
48 50 50 50 47 44 42 38 34 31 22 26 25 33 31 27 19 15 14 13 11 9 9 9 6 7 7 10 11 10 10 10 8 5 8 16 14 15 20 23 22 18 22 23
45 46 46 47 46 44 40 36 32 23 21 25 24 29 32 31 24 17 14 11 11 12 12 10 7 5 4 4 3 8 11 13 13 9 5 5 8 10 15 22 24 22 15 15
41 41 43 43 43 44 40 31 28 23 20 14 23 30 34 36 28 21 18 15 13 11 12 12 11 11 9 5 4 5 8 9 13 16 12 9 14 18 20 11 16 13 13 11
37 37 38 40 43 43 39 31 24 21 20 16 19 26 32 31 27 22 21 20 19 15 15 13 12 9 11 11 14 13 12 7 8 8 7 8 8 9 11 15 23 22 20 24
32 34 36 39 41 40 36 33 22 19 16 16 24 28 23 24 24 22 20 19 13 15 13 14 10 12 13 15 15 16 15 16 12 11 11 17 23 24 22 23 22 21 24 27
31 31 33 36 38 40 42 36 24 19 16 17 25 24 23 22 19 18 19 18 17 16 14 14 13 15 15 15 14 16 18 16 21 23 23 22 23 24 23 23 24 24 27 29
26 28 33 36 40 41 33 28 22 19 18 20 24 24 23 22 20 18 17 17 15 14 15 16 18 19 16 16 17 15 18 20 25 27 25 22 18 19 21 23 24 25 27 28
26 28 33 36 32 25 28 20 17 16 17 19 25 22 20 19 19 18 18 17 17 16 17 18 18 19 20 21 20 20 22 21 21 22 19 22 22 23 25 27 27 28 29 29
28 32 35 33 32 26 23 18 16 17 19 12 23 21 21 19 18 18 17 17 17 16 17 18 19 20 20 14 14 20 21 22 22 24 24 24 24 24 26 28 29 31 32 32
29 28 30 32 33 27 23 22 21 19 19 12 17 19 20 19 19 18 17 17 16 16 17 19 20 20 22 25 26 22 24 24 23 24 26 27 27 30 31 32 31 31 30 29
27 25 23 26 25 24 23 20 20 20 18 17 13 10 17 19 18 18 17 17 17 19 21 22 23 24 25 26 21 24 26 26 28 29 30 33 34 33 32 32 30 27 26 26
22 22 24 22 20 21 20 19 17 17 18 15 14 14 14 13 14 15 17 18 22 23 24 24 25 28 23 23 27 29 31 32 33 33 31 30 29 29 30 30 30 27 22 29
19 17 18 18 18 16 16 16 16 16 17 18 15 13 14 13 14 16 17 19 19 17 21 21 23 28 26 27 29 30 30 28 27 26 26 26 27 30 30 25 27 26 24 23
17 17 17 15 17 15 14 13 12 12 12 14 18 18 17 18 20 20 18 15 13 15 17 18 16 18 24 25 26 28 27 26 25 25 27 30 26 22 21 23 18 16 13 11
16 16 15 15 14 12 12 12 11 8 11 14 16 19 22 25 25 23 18 17 11 10 12 11 10 21 24 24 23 22 25 26 26 24 21 21 19 17 16 12 11 10 16 22
18 17 16 11 12 12 9 10 11 16 20 16 17 19 20 19 19 15 11 9 10 12 9 8 15 18 19 21 22 18 16 15 11 9 6 5 5 10 16 17 18 19 19 17
21 16 16 11 8 9 16 18 19 19 16 17 17 15 11 13 10 10 6 10 9 7 7 11 16 14 13 13 11 9 9 7 7 6 7 9 10 11 12 13 16 17 17 18
15 10 9 12 12 10 7 11 16 18 15 12 12 14 13 10 8 7 9 6 6 7 9 11 10 11 9 8 9 9 10 9 7 7 8 9 10 13 15 16 17 18 20 22
10 8 5 7 9 9 10 10 10 11 11 13 13 12 8 11 7 8 9 5 6 6 7 7 8 8 9 10 10 10 10 10 10 11 10 12 14 15 17 20 21 23 25 27
2 4 5 6 6 7 8 8 9 11 12 14 10 7 8 6 6 8 8 8 10 11 9 5 5 6 8 10 11 12 11 9 9 12 14 16 18 19 20 22 24 26 29 31

GFSNW_700_spd_018.txt.gz
Wind_Speed
62 59 59 58 54 51 48 49 45 46 41 37 33 26 27 19 12 16 18 16 13 14 14 14 10 12 13 12 15 14 14 9 7 9 11 14 15 11 11 8 5 5 2 7
60 60 60 61 59 57 53 53 37 46 43 35 34 26 30 24 12 16 19 20 13 14 15 11 15 14 13 10 8 11 16 9 6 3 6 13 13 16 16 14 11 8 4 5
60 56 63 63 60 54 50 52 34 46 45 34 34 30 28 24 14 17 21 19 18 13 13 14 10 16 13 12 11 10 12 16 11 13 5 6 12 21 20 14 8 9 16 13
43 64 65 63 58 53 53 54 34 42 51 44 32 29 29 22 18 16 18 18 19 17 15 13 17 15 16 14 12 12 15 13 19 19 16 14 13 12 18 22 19 14 14 15
41 66 63 63 57 55 56 46 31 37 28 44 30 31 25 24 20 18 18 13 15 15 14 11 12 16 14 13 12 15 16 13 16 18 19 18 18 17 18 19 21 24 23 24
62 65 65 62 59 56 58 45 26 38 26 43 38 35 29 25 21 17 15 13 13 14 13 11 9 11 10 10 12 13 16 15 10 7 15 17 16 24 25 25 25 25 22 20
69 66 66 64 59 54 54 40 27 33 38 32 39 33 31 24 24 19 15 12 13 15 14 12 11 11 11 12 13 12 12 12 10 6 4 3 12 17 16 18 18 19 18 21
63 64 63 60 57 52 50 36 30 27 29 28 29 34 32 28 22 21 16 14 11 11 14 11 9 9 8 10 10 11 12 11 7 5 8 15 17 15 15 18 17 15 19 19
61 61 60 58 54 51 47 40 35 23 25 30 28 29 33 33 28 24 20 17 15 13 15 13 9 6 7 5 5 15 15 13 13 7 4 4 7 10 14 15 13 8 7 11
57 58 57 55 52 49 45 43 32 31 27 17 27 29 35 33 31 27 21 18 16 14 17 16 11 8 9 5 5 6 7 9 14 15 10 7 12 14 14 5 5 12 21 17
53 53 53 51 49 47 44 40 32 26 22 21 17 29 28 35 33 30 24 21 20 18 16 14 11 9 11 12 12 9 8 5 6 7 6 6 3 6 8 13 22 23 19 16
48 49 49 48 47 45 42 37 32 28 24 17 17 22 24 30 34 29 24 23 17 19 15 14 8 11 9 11 7 11 11 11 8 7 7 13 19 17 17 21 24 24 24 23
43 44 44 45 45 45 40 34 26 23 20 17 21 22 22 27 29 28 26 22 22 17 17 15 12 12 10 12 12 14 15 12 17 18 17 17 21 21 21 21 22 21 23 24
38 39 40 41 44 42 39 34 27 24 23 17 24 26 23 23 28 26 25 22 19 17 16 16 16 16 13 14 14 13 16 18 20 21 19 18 18 20 21 22 25 26 27 28
35 36 39 42 42 42 39 38 26 20 20 16 25 27 24 24 23 19 18 18 18 18 17 17 18 18 17 17 16 16 15 16 14 15 16 21 21 22 24 24 25 26 28 29
35 36 37 39 42 40 39 34 30 23 15 16 28 27 26 24 23 22 20 19 18 18 17 16 16 17 16 10 12 15 17 17 21 22 21 22 22 23 24 26 28 30 32 32
34 35 36 38 38 30 38 24 21 19 15 11 21 24 25 24 23 22 20 19 18 17 16 18 17 16 16 18 18 19 19 21 23 24 22 23 24 26 28 31 31 31 30 29
33 37 38 36 35 27 26 21 20 19 17 14 13 15 23 23 22 21 20 19 18 19 19 19 19 19 20 18 19 21 21 21 25 26 27 27 31 31 28 28 28 27 28 29
33 33 34 34 31 25 20 17 22 22 18 16 13 14 13 21 20 19 19 19 19 20 22 22 22 23 21 20 21 23 24 25 28 29 29 26 24 25 25 27 30 27 24 25
34 33 33 32 27 23 19 18 22 22 20 17 15 16 16 13 17 17 18 18 16 15 20 20 24 29 25 26 27 26 25 24 22 22 21 22 24 25 27 22 20 19 17 14
20 24 23 24 21 20 18 15 16 12 13 17 17 15 15 17 17 17 15 14 11 13 16 18 18 23 24 24 24 22 19 20 19 19 20 21 19 16 14 12 12 10 9 10
22 20 20 23 18 12 9 11 12 9 12 13 18 19 18 18 19 20 17 17 10 9 16 12 12 26 25 24 22 18 16 15 13 12 11 11 9 7 6 5 6 7 10 11
20 21 18 11 10 8 9 12 12 13 12 14 17 22 26 26 25 18 10 8 11 13 9 10 19 22 20 17 17 14 11 10 10 9 8 7 7 9 10 10 10 11 11 12
19 15 11 10 6 9 14 17 17 16 16 18 19 21 19 20 16 12 7 9 7 6 7 14 19 15 13 12 10 9 8 8 7 7 7 7 7 8 9 10 11 12 13 16
9 7 7 11 10 10 12 15 16 16 16 16 16 17 17 13 10 7 8 5 7 8 9 11 7 7 8 10 10 9 8 9 9 9 9 10 11 12 12 12 14 15 18 20
10 8 8 11 15 14 13 13 16 17 17 17 17 14 7 12 8 8 9 6 6 5 5 4 4 6 8 9 9 9 10 10 10 10 11 12 13 13 14 16 18 21 23 26
7 9 10 9 11 12 12 12 12 12 12 14 10 8 8 6 6 8 8 7 9 9 7 2 2 4 7 9 11 12 12 13 13 12 12 13 15 16 17 19 21 24 27 30

GFSNW_700_spd_021.txt.gz
Wind_Speed
68 69 62 57 57 51 52 47 38 48 49 45 37 34 29 17 15 13 14 17 14 16 16 17 15 19 13 14 14 14 14 10 13 12 11 12 10 11 12 10 8 5 3 13
46 69 72 58 58 59 56 51 34 43 49 44 36 28 27 22 16 14 16 18 14 13 15 15 16 14 16 11 14 13 13 11 12 11 11 11 12 13 13 11 11 10 5 6
51 72 75 60 57 61 57 41 36 47 57 40 32 33 32 24 19 15 16 16 15 13 14 14 11 13 14 15 15 12 13 15 16 16 9 2 10 13 15 17 13 14 18 15
49 75 73 60 57 61 58 43 41 47 56 49 35 33 27 28 22 15 17 17 19 16 13 13 11 12 14 16 15 14 13 11 15 18 13 12 11 12 14 20 22 20 19 15
49 71 77 59 48 62 62 43 42 35 31 46 31 35 30 32 23 19 20 17 19 16 14 15 11 13 14 13 16 15 15 9 15 16 14 16 15 16 17 18 20 21 23 23
54 69 70 58 61 68 67 42 37 38 34 48 37 36 29 32 24 21 18 18 17 15 15 15 12 15 13 10 11 13 12 15 10 8 9 9 14 21 22 21 20 20 22 22
59 53 54 56 71 70 61 38 37 42 37 48 43 32 27 29 25 19 20 15 15 17 15 14 12 11 11 13 15 15 15 14 10 5 4 1 9 12 13 14 16 19 21 19
67 54 63 76 69 68 55 32 32 31 36 36 39 29 28 24 25 17 23 20 15 13 14 14 11 10 12 14 15 15 14 14 8 5 9 11 14 13 13 10 9 8 8 10
78 51 70 71 69 65 50 46 35 27 39 26 35 32 29 25 27 26 21 18 15 13 15 15 9 7 7 5 5 16 15 14 10 7 4 4 3 8 9 9 8 2 7 7
61 58 62 67 67 67 40 42 31 22 26 26 26 35 29 25 20 24 25 21 17 14 16 18 9 9 8 5 6 6 12 14 14 12 8 7 9 13 12 6 4 10 14 23
59 67 66 68 67 62 44 42 35 26 21 25 31 23 26 26 25 28 26 22 21 20 17 16 10 10 11 9 8 7 7 6 7 8 6 7 9 4 2 7 16 23 24 23
65 60 65 64 64 55 44 37 37 30 21 24 23 26 28 27 25 23 26 21 20 20 13 14 12 11 9 13 6 11 6 10 6 7 3 10 11 17 15 22 24 24 24 22
62 62 63 59 58 52 44 35 30 32 25 18 22 23 28 26 33 34 27 28 24 19 18 15 13 10 10 11 12 10 12 12 13 13 6 9 12 22 20 18 19 20 22 24
60 60 58 56 55 48 37 34 35 28 26 24 20 21 26 27 29 35 29 28 22 20 18 19 19 15 13 15 14 12 11 12 12 14 17 13 10 9 17 22 23 25 25 25
53 54 53 52 50 45 35 32 28 25 24 23 21 24 23 23 28 30 28 26 24 21 21 19 19 18 17 17 16 14 16 12 14 10 13 19 17 24 27 26 26 25 26 27
48 48 49 49 47 43 35 35 30 27 27 16 22 28 29 22 26 29 27 25 23 22 23 21 20 17 16 12 15 15 18 20 19 18 21 23 24 28 26 26 26 28 32 32
43 44 45 46 45 42 37 21 28 29 20 11 17 25 29 25 25 25 24 22 22 24 23 22 18 16 18 18 15 15 18 21 24 24 23 24 21 25 25 28 31 30 28 27
41 42 42 43 45 39 33 23 24 25 18 13 13 16 29 30 29 26 23 24 23 22 21 20 19 18 20 17 19 21 22 24 28 26 25 24 25 27 26 24 25 25 26 28
39 38 40 41 43 37 35 28 27 25 11 8 10 19 22 28 27 27 25 24 23 19 22 21 21 22 15 20 21 23 25 27 28 28 28 28 25 23 22 23 25 24 21 19
40 42 44 40 40 36 28 33 23 17 13 10 10 17 16 24 26 23 22 22 21 15 22 23 25 26 25 25 27 29 29 29 28 26 22 21 21 21 21 18 15 14 14 13
44 44 38 37 34 31 16 11 15 12 15 16 15 15 14 15 21 24 20 14 11 12 16 18 15 23 23 25 28 28 26 22 20 19 19 17 16 14 13 13 12 11 11 11
32 35 31 29 20 7 5 11 11 9 13 13 20 18 17 18 18 17 18 14 9 8 13 13 13 23 21 24 25 24 20 16 14 12 10 9 10 10 10 10 10 11 13 14
28 31 21 14 8 7 9 11 11 11 16 19 18 21 21 18 18 17 11 9 12 12 10 12 21 21 21 18 18 17 14 11 8 8 8 8 9 10 11 13 13 13 14 14
25 16 14 8 6 8 9 16 15 14 13 14 15 17 19 21 19 14 6 10 8 7 8 13 20 16 16 15 13 10 8 7 7 8 9 10 12 13 14 14 15 16 16 17
17 9 8 10 9 12 13 14 15 17 19 19 21 22 22 16 10 8 9 6 6 8 10 14 11 10 10 10 10 9 8 8 10 11 12 14 15 15 16 16 16 17 18 20
8 6 9 14 13 13 14 15 16 15 14 15 16 15 9 11 8 9 9 6 7 9 10 9 8 8 10 11 10 11 10 11 13 14 15 15 15 16 16 17 18 20 21 23
6 9 10 11 12 12 11 10 11 13 12 12 10 7 9 7 7 8 9 9 11 9 6 4 4 6 10 12 12 12 14 15 16 16 16 15 16 17 18 19 21 22 24 27

GFSNW_700_spd_024.txt.gz
Wind_Speed
63 74 71 68 60 54 51 49 47 45 44 47 50 40 34 27 19 18 15 17 20 19 16 17 15 15 18 14 13 9 11 8 10 13 9 7 9 8 11 10 8 4 3 14
53 61 73 70 65 57 55 54 43 33 44 55 46 41 32 31 22 18 20 18 17 17 15 14 16 11 12 13 9 10 8 7 12 13 12 10 15 14 14 9 11 10 5 6
56 49 56 70 71 60 59 50 40 33 49 53 43 42 31 31 26 19 19 19 16 15 16 16 14 14 14 11 12 16 14 11 14 13 15 5 12 13 13 15 13 14 20 19
54 52 50 64 77 62 59 47 46 43 56 62 44 36 29 32 28 24 20 21 22 17 15 16 13 14 12 15 16 15 15 12 13 17 18 9 12 10 10 16 18 20 20 17
55 51 50 58 81 59 61 63 44 44 19 55 45 41 41 35 30 24 20 20 21 19 14 15 14 14 15 13 16 16 16 10 11 17 14 16 16 17 16 18 17 19 20 20
57 51 52 69 86 56 69 60 47 30 33 47 49 48 39 34 30 27 22 23 18 20 15 16 15 9 14 8 13 16 11 12 13 8 8 10 14 19 19 20 18 18 20 19
48 49 48 71 81 66 68 53 46 31 41 40 62 41 33 31 33 24 21 20 17 24 20 15 13 13 13 15 12 10 14 12 9 5 5 1 9 7 9 10 11 12 14 13
49 49 58 63 71 67 72 47 37 33 41 42 47 37 35 32 28 26 21 23 20 23 19 16 13 12 11 10 13 15 14 13 9 5 8 11 15 8 8 5 5 4 3 7
50 55 60 57 67 73 71 55 44 20 42 45 50 41 35 33 30 27 30 26 19 20 18 15 9 7 9 7 4 12 14 15 13 7 3 4 3 9 8 6 4 3 11 9
50 51 54 56 60 79 66 51 26 25 38 32 46 46 40 33 28 26 27 28 22 18 17 16 10 10 10 7 9 6 9 13 15 12 7 7 9 12 13 5 4 9 9 16
53 53 52 63 64 74 64 49 32 18 34 32 44 37 41 25 28 30 29 27 24 21 15 15 10 10 13 9 6 6 6 7 9 12 7 7 10 6 4 9 9 15 24 23
41 51 65 55 80 71 57 41 41 19 21 40 45 44 41 30 26 24 29 28 21 20 16 12 12 11 12 14 7 11 8 10 7 8 1 8 7 11 13 16 20 23 22 19
41 58 65 79 78 66 46 34 48 23 30 39 35 32 35 33 30 25 26 25 17 19 20 14 12 10 12 12 12 10 11 13 13 14 9 5 8 14 13 9 15 17 20 22
53 49 74 75 76 59 33 20 11 18 32 30 30 31 31 29 33 31 26 27 23 20 17 13 16 13 11 12 9 11 11 12 8 10 12 12 9 13 16 20 23 24 24 24
59 73 73 67 48 46 22 23 20 15 16 18 23 26 24 28 29 27 31 27 24 22 19 19 19 17 16 13 13 14 14 12 14 12 14 18 21 26 25 27 28 28 25 26
73 63 67 61 46 34 25 25 25 24 19 7 24 25 24 25 28 27 32 29 23 22 23 23 23 20 17 12 15 15 19 18 18 20 22 23 25 26 28 28 27 26 27 30
60 66 64 55 45 31 28 20 25 21 19 15 19 16 25 27 29 31 30 29 29 27 27 24 23 22 20 19 17 19 17 20 22 20 21 27 27 29 27 25 27 30 29 26
55 56 53 45 41 32 21 17 20 23 18 20 9 11 27 29 28 29 32 30 29 28 24 24 25 22 21 19 20 22 21 24 24 25 25 28 27 26 26 28 27 25 25 25
46 47 48 41 35 30 22 16 15 18 25 20 9 16 25 32 29 30 28 29 26 23 26 24 22 22 16 18 22 23 23 27 28 27 28 28 26 27 26 23 23 23 22 18
42 42 45 41 34 31 26 19 15 15 22 6 8 18 22 32 30 29 28 24 19 16 21 22 25 25 24 23 24 26 27 29 29 29 27 26 25 22 22 22 18 15 15 14
42 42 42 30 38 25 22 11 10 8 13 7 9 21 18 25 33 32 26 16 16 11 15 18 18 24 23 25 26 29 30 30 28 25 23 21 20 20 15 12 12 12 12 12
40 40 36 31 30 12 11 10 9 9 11 12 15 17 16 17 21 17 22 13 10 8 13 14 10 19 18 21 24 27 27 26 22 20 17 15 11 11 12 11 11 12 13 14
35 29 26 16 16 11 8 9 10 7 15 21 22 20 18 16 18 14 10 10 12 11 9 9 16 15 18 22 23 23 23 19 15 13 11 10 11 11 11 11 12 13 14 16
25 21 15 8 11 10 9 18 18 13 16 18 19 19 17 15 15 9 7 10 7 8 8 14 15 15 16 18 19 18 16 14 11 10 10 10 9 10 11 13 15 17 18 18
21 11 8 10 9 15 12 14 13 11 8 12 14 15 13 11 8 7 7 6 7 7 9 11 12 13 14 13 13 9 10 10 10 10 10 10 12 13 15 17 18 19 20 21
7 5 13 15 14 15 12 13 14 15 15 14 14 14 8 11 7 8 7 5 5 8 12 12 11 9 8 12 9 9 10 11 10 11 12 13 15 17 18 18 19 21 22 24
7 10 11 10 12 11 11 11 12 13 14 13 8 7 7 5 5 5 6 6 9 10 10 8 5 4 6 8 11 11 12 12 12 14 15 16 17 18 19 20 20 23 24 25

GFSNW_700_spd_027.txt.gz
Wind_Speed
49 55 71 69 64 61 55 51 48 42 46 47 52 56 51 41 31 21 13 15 24 22 19 23 18 21 25 17 20 15 15 5 12 19 8 11 10 7 6 13 6 3 2 8
46 49 63 67 68 66 60 54 45 30 44 53 57 52 50 45 34 25 12 21 20 22 12 12 21 18 15 20 21 13 15 6 7 11 12 12 14 14 19 14 10 13 5 5
50 44 51 51 65 68 63 54 40 47 43 54 56 52 52 50 40 24 16 18 21 21 12 21 24 17 15 17 16 18 17 11 10 10 9 10 8 11 12 15 13 11 15 18
46 49 57 51 52 69 70 61 48 53 55 58 53 48 49 50 44 34 21 20 28 19 15 18 13 18 15 11 9 11 13 17 17 15 16 15 9 11 8 13 15 19 18 15
49 45 61 55 56 71 71 63 56 57 39 56 53 43 56 54 44 31 27 21 23 22 17 19 20 15 15 14 15 15 14 14 14 14 17 19 16 15 18 17 14 15 12 16
52 55 57 58 62 74 71 62 54 49 50 26 55 59 55 46 43 29 25 19 21 22 23 20 18 21 15 15 13 18 17 16 15 13 14 14 14 21 18 15 18 17 16 14
49 50 57 52 63 74 71 62 52 35 50 36 55 55 55 46 44 32 23 22 23 21 22 22 23 13 14 13 14 14 20 16 11 6 6 0 7 4 7 3 3 6 6 9
52 47 56 53 65 65 69 59 49 31 44 51 32 57 57 41 40 31 31 32 29 26 24 25 18 13 12 15 15 15 15 15 11 6 13 12 10 9 9 9 5 7 11 12
48 48 52 54 58 53 67 59 57 35 28 49 49 45 52 47 41 33 36 33 30 29 26 23 12 9 11 9 14 18 19 17 16 11 5 6 5 6 7 6 8 10 13 15
50 54 53 52 59 59 64 59 52 54 10 32 41 46 58 46 38 37 39 38 31 31 34 23 14 13 14 13 12 10 14 17 19 15 8 6 9 10 12 9 8 12 12 12
38 49 49 46 70 57 62 58 57 38 16 29 36 38 51 43 41 39 35 36 33 32 25 21 13 11 18 12 12 10 10 11 14 14 8 9 12 13 13 12 14 11 12 20
44 49 49 48 73 65 63 55 51 26 28 35 40 49 41 43 41 36 36 36 33 27 25 17 18 12 21 19 12 12 10 11 11 7 4 6 7 10 11 12 12 19 23 22
46 48 46 48 72 59 68 50 35 22 31 32 40 52 44 39 33 27 31 40 30 28 27 21 17 15 17 18 21 13 17 11 12 9 6 8 5 15 18 19 21 22 18 21
40 39 39 45 79 58 64 48 37 37 16 24 37 46 43 34 29 30 32 30 27 24 21 19 18 14 13 15 11 16 19 17 16 15 15 16 16 18 20 22 23 22 23 26
39 32 38 55 63 71 50 42 37 36 15 10 35 48 39 36 30 29 24 28 27 26 22 23 20 15 13 13 15 16 17 19 18 18 19 22 24 25 24 22 23 25 26 26
33 31 42 72 63 57 38 26 30 37 18 18 24 40 36 33 31 29 25 25 24 23 23 25 22 17 18 12 20 18 17 17 18 19 20 22 22 22 23 25 26 27 25 25
42 54 55 61 74 52 34 18 13 34 18 10 21 28 34 35 36 36 34 31 31 29 27 26 23 20 20 23 21 19 16 17 18 21 25 25 24 23 24 25 26 26 26 28
53 54 65 72 65 43 12 23 23 24 20 22 20 22 30 34 36 37 36 37 34 30 28 27 24 22 24 25 25 19 18 18 20 23 25 26 26 25 25 25 26 27 27 24
48 52 60 63 40 26 15 26 22 20 17 15 14 21 23 29 32 33 32 33 33 29 28 27 23 26 24 23 21 18 22 23 25 23 24 26 25 25 25 26 26 23 20 19
56 60 47 27 41 21 22 19 15 12 13 10 11 20 18 29 29 30 29 26 20 20 25 26 26 27 27 24 21 19 23 26 25 25 25 24 25 26 27 23 20 18 15 14
43 33 24 23 18 14 13 7 6 5 4 8 16 14 16 28 29 27 25 15 16 12 17 21 18 28 26 25 24 26 27 28 28 26 26 25 24 21 19 18 15 13 13 13
38 30 27 20 14 4 5 7 7 6 8 12 6 15 16 22 29 17 24 12 11 8 17 17 15 20 20 22 24 27 28 28 28 27 25 21 16 15 13 11 11 12 13 13
29 27 22 4 10 3 4 6 6 4 1 13 10 9 18 17 17 10 11 9 10 6 9 9 12 12 16 19 22 24 25 25 23 19 16 14 11 10 10 9 10 11 12 13
19 15 14 6 3 2 3 9 12 12 13 19 21 16 12 15 17 7 7 8 10 9 9 11 14 16 19 22 23 23 22 16 14 13 12 12 10 8 8 9 11 12 13 14
15 9 6 8 5 9 8 11 14 11 11 15 21 19 15 12 8 8 6 8 6 7 8 11 12 14 15 18 18 16 13 13 13 11 9 9 8 8 9 11 13 15 15 16
12 6 9 13 10 13 12 16 16 13 12 18 16 13 7 6 6 7 5 5 5 5 7 7 9 12 14 13 11 11 9 8 8 9 8 8 9 10 12 14 15 16 18 20
10 11 13 14 16 15 15 15 16 17 17 18 12 9 7 7 6 7 6 4 4 5 8 6 7 7 5 6 10 8 8 9 9 8 10 11 13 14 14 16 17 18 20 23

GFSNW_700_spd_030.txt.gz
Wind_Speed
62 48 59 72 72 66 59 53 50 51 48 46 51 57 49 46 41 34 21 14 11 23 21 25 26 20 21 15 21 21 20 13 10 16 10 9 11 13 14 9 6 6 3 9
59 53 48 64 70 68 61 55 43 35 51 55 59 55 52 47 45 40 33 22 11 13 27 22 21 25 21 18 21 28 23 13 11 16 17 16 17 15 13 14 13 14 8 7
58 59 51 46 61 62 58 54 43 38 48 60 59 60 56 52 46 46 35 25 20 14 17 11 18 25 18 23 19 26 21 18 19 19 13 10 8 11 11 13 10 14 18 16
56 54 48 48 48 56 63 52 50 58 61 68 65 56 56 56 55 47 39 30 26 17 14 11 17 18 23 25 24 23 21 20 18 17 17 17 12 9 11 13 11 9 15 21
55 53 52 53 52 58 67 53 48 54 47 63 65 61 60 56 51 47 43 32 24 19 22 14 24 18 23 23 21 19 17 19 22 23 21 21 21 19 16 18 17 18 12 9
53 50 60 50 60 64 72 49 52 45 49 53 64 72 63 56 51 47 44 32 21 20 22 16 18 16 19 17 13 15 17 18 16 18 16 15 16 26 26 24 26 22 21 12
48 58 53 52 65 64 79 51 45 51 46 44 64 64 62 52 54 47 42 30 27 17 23 21 20 15 17 16 18 18 15 19 17 12 12 1 12 8 9 13 13 9 12 14
61 52 52 62 64 61 81 54 50 37 49 55 42 45 60 49 50 44 44 34 27 21 23 25 22 20 18 18 18 16 17 19 14 7 14 12 10 10 13 13 12 11 10 12
57 44 59 61 64 62 78 61 45 43 31 51 52 28 39 53 52 44 49 40 18 28 30 28 19 17 16 12 15 20 20 20 20 12 5 8 10 22 16 15 15 16 13 11
48 49 52 64 67 56 81 67 46 47 30 34 33 47 40 49 48 48 46 40 29 32 33 28 20 18 20 16 17 20 22 22 22 20 13 11 16 13 11 15 12 17 16 16
45 47 53 61 63 50 84 73 45 42 30 31 30 42 36 45 52 55 48 39 38 41 35 29 23 14 21 19 17 20 19 16 17 20 12 13 15 19 21 16 14 14 14 13
43 47 47 65 56 51 78 72 51 45 30 14 42 43 54 36 51 51 39 40 37 33 34 22 25 16 23 22 18 20 15 20 15 13 8 9 9 15 15 12 11 12 13 16
41 48 52 55 51 52 74 78 54 34 38 12 42 37 49 40 49 48 43 35 36 39 38 23 22 25 21 22 24 20 21 14 16 13 15 12 12 14 15 14 13 15 18 17
43 41 44 50 45 61 72 72 58 31 16 22 25 30 38 43 44 43 38 35 31 36 37 28 27 21 20 22 20 26 23 22 21 19 18 17 17 18 18 18 18 19 18 20
49 43 46 45 40 53 67 60 55 28 34 19 34 31 30 41 32 41 29 32 32 32 37 23 26 27 22 22 21 21 24 25 25 25 21 21 19 21 21 22 22 20 21 23
40 43 44 41 39 45 63 46 44 33 39 19 13 34 40 46 38 40 30 33 38 42 36 35 29 26 22 17 24 22 21 18 19 20 19 19 19 21 23 23 24 25 27 28
33 24 32 31 38 65 64 50 46 38 22 15 8 29 47 41 35 34 49 40 37 36 37 33 29 25 23 23 22 20 21 18 18 17 16 19 21 22 23 24 26 27 28 27
28 27 34 33 56 69 59 30 18 27 37 13 7 7 41 44 33 29 28 33 32 31 32 30 26 25 28 29 28 21 19 19 18 17 17 22 24 24 25 25 26 27 27 27
28 28 42 57 59 57 38 25 25 31 29 8 9 16 32 39 37 30 27 26 25 25 27 27 27 31 27 27 25 23 23 22 19 18 22 25 25 25 24 26 26 26 26 25
41 40 43 48 58 45 27 21 18 19 11 7 14 19 18 31 27 29 27 25 17 19 25 26 30 29 31 28 27 22 21 21 21 23 26 26 25 25 25 24 26 25 22 20
38 29 31 41 44 15 4 8 6 7 8 10 16 21 23 27 30 29 22 17 17 12 18 22 23 30 31 28 27 24 25 24 27 28 27 27 25 24 25 25 23 20 16 14
19 34 36 34 8 6 7 9 7 7 7 11 12 13 13 20 23 17 20 16 11 8 16 20 18 22 26 28 27 28 28 29 29 28 25 23 24 25 23 20 18 15 13 12
23 15 12 8 6 6 6 6 7 6 11 14 14 15 18 18 21 14 13 11 11 7 11 9 18 20 24 26 26 26 27 28 27 25 23 23 20 18 16 15 13 12 10 9
14 6 9 9 7 6 6 12 16 12 10 16 14 16 18 21 25 10 11 8 10 9 9 10 9 14 13 11 17 24 24 20 19 20 20 17 15 13 13 12 11 9 10 11
11 9 7 6 7 7 7 8 10 13 14 19 18 16 10 9 5 7 7 10 7 8 10 12 17 22 24 20 16 16 15 16 17 16 14 12 10 11 11 8 8 9 11 12
7 7 12 11 9 11 10 10 12 10 16 23 20 13 7 7 6 7 5 6 5 8 7 8 9 8 8 8 9 10 12 10 7 7 8 11 12 9 7 8 9 10 12 14
8 15 14 15 14 14 13 13 12 12 22 20 11 10 6 7 6 7 7 6 8 9 7 6 6 6 4 3 3 5 5 7 9 11 11 9 8 8 9 10 11 13 15 17

GFSNW_700_spd_033.txt.gz
Wind_Speed
43 51 53 45 58 65 63 62 60 59 53 47 53 59 49 40 39 35 21 19 17 25 28 27 27 29 27 21 23 22 22 15 20 22 15 9 19 13 12 11 7 9 7 13
45 55 56 47 47 61 62 61 52 35 52 54 62 56 56 51 46 46 39 21 17 16 23 32 27 27 26 26 19 26 24 16 14 11 14 11 13 15 18 18 19 14 8 10
50 55 53 52 43 54 58 54 42 41 44 64 60 61 53 55 49 48 45 39 22 15 15 23 29 28 26 28 26 18 24 24 19 18 18 19 16 14 17 19 16 18 23 24
54 57 54 51 52 51 58 55 46 53 57 70 66 57 57 53 53 50 48 46 40 23 16 17 19 23 26 27 23 24 30 23 23 19 15 18 19 20 15 17 19 21 21 20
57 56 67 50 48 57 58 58 49 48 50 63 70 54 61 56 55 39 47 49 42 28 22 16 18 17 22 30 23 25 31 17 18 16 18 22 26 26 25 22 21 22 20 18
57 51 56 56 54 59 66 61 45 47 55 47 54 79 67 64 53 55 43 41 42 32 25 15 13 20 20 26 27 31 27 24 20 21 21 21 23 27 30 33 31 26 27 25
57 51 52 52 56 58 67 71 51 40 50 52 68 65 58 61 61 53 48 32 40 32 20 20 19 18 25 26 27 25 25 21 21 11 14 2 19 20 22 26 29 32 31 30
53 53 52 51 51 64 60 70 60 30 33 50 55 50 56 57 56 52 50 39 38 31 23 14 21 25 25 26 25 24 19 18 15 10 17 17 14 13 16 15 14 14 13 13
51 50 51 56 61 73 61 67 70 43 32 32 44 55 44 61 60 49 47 43 33 35 30 27 24 19 20 19 22 24 22 20 18 13 7 8 25 21 23 17 15 18 15 14
45 47 45 54 68 58 70 70 55 49 40 30 28 48 43 40 55 49 46 42 42 31 26 33 22 24 24 24 29 21 23 22 23 24 15 15 18 15 14 21 17 21 21 17
42 46 50 63 58 54 72 62 50 49 40 34 37 38 40 22 38 54 48 41 47 45 31 36 24 13 28 26 25 29 31 25 23 24 15 14 20 20 25 20 20 13 13 17
40 42 57 47 58 61 67 67 44 58 29 24 34 34 41 46 33 45 44 49 38 37 32 27 31 17 26 29 26 27 25 26 22 18 17 14 9 14 23 24 19 13 10 13
50 50 50 52 50 74 48 69 65 57 32 34 17 24 24 48 41 31 47 40 42 48 37 36 24 23 25 29 31 28 28 22 23 20 21 18 15 13 14 16 15 14 11 15
48 47 38 43 57 66 44 57 69 53 26 34 33 28 36 46 51 36 37 33 37 34 38 35 29 25 30 29 26 34 31 26 25 24 22 18 18 18 16 16 15 15 17 18
37 39 38 40 48 51 46 50 72 47 36 11 29 16 36 34 51 37 35 37 33 34 35 37 31 32 25 30 30 31 27 28 27 25 20 21 16 15 16 18 20 21 22 23
35 37 40 39 44 49 39 36 58 59 44 20 6 21 28 23 35 41 38 39 35 35 34 33 33 34 32 25 30 29 24 21 19 20 16 17 17 18 18 20 22 23 24 24
35 43 45 43 43 43 38 37 52 65 51 14 17 9 15 22 29 37 36 43 37 39 40 35 37 38 29 27 29 26 25 21 19 19 20 21 20 21 21 21 22 24 25 27
31 32 31 35 32 22 25 31 29 52 36 14 15 14 15 29 36 34 39 45 43 44 38 41 35 37 34 29 32 26 22 17 21 21 20 20 20 21 23 24 25 27 28 28
26 30 25 20 18 23 36 25 21 41 39 12 12 20 20 34 44 43 42 38 37 27 41 34 33 35 28 32 29 26 22 22 20 22 23 22 23 26 27 27 28 28 28 28
31 29 28 21 25 36 35 31 9 14 35 37 23 17 21 14 40 41 25 31 42 13 26 27 26 28 29 27 27 24 22 23 24 27 27 26 27 28 28 27 27 28 27 26
36 30 24 33 25 32 36 16 10 12 15 24 30 30 24 17 31 20 19 13 7 7 11 16 12 25 31 32 29 27 26 25 29 32 33 29 31 28 26 26 26 26 26 25
21 25 31 32 35 24 18 11 7 5 7 12 14 13 16 13 23 11 13 6 6 6 12 13 13 20 19 24 27 29 29 31 33 34 32 30 27 26 25 25 25 24 25 23
24 30 23 24 18 8 5 5 8 7 13 18 22 18 14 8 9 8 8 9 10 7 10 8 14 17 23 23 25 29 31 31 32 31 30 28 27 25 23 22 20 20 19 17
27 25 11 4 5 5 10 15 15 13 14 14 20 18 11 12 15 9 8 8 8 10 9 8 10 15 19 23 25 26 26 26 22 22 25 25 22 20 18 16 15 15 16 13
14 8 4 8 14 15 13 12 12 12 15 14 14 13 6 15 7 5 5 8 5 5 5 9 13 12 11 10 12 16 18 20 22 22 21 20 15 12 12 12 13 13 11 10
7 9 17 14 10 11 9 8 9 10 15 18 16 8 3 2 8 5 4 6 3 4 4 7 7 12 13 15 16 15 14 11 9 8 8 8 7 9 11 14 13 11 10 11
9 12 11 13 11 8 7 7 8 9 19 16 9 6 4 7 6 6 4 4 6 7 4 5 6 6 6 6 6 7 6 6 5 5 8 11 13 15 13 11 11 11 13 16

GFSNW_700_spd_039.txt.gz
Wind_Speed
51 49 48 49 43 38 41 45 50 55 52 51 58 65 53 41 42 31 33 19 22 16 21 27 34 35 29 15 32 30 23 11 20 22 17 17 15 14 17 12 7 8 6 13
53 53 51 48 45 42 46 50 46 39 38 53 63 65 55 48 37 43 34 31 19 21 15 20 27 31 31 20 28 28 25 22 16 12 13 18 18 18 14 17 17 14 7 8
56 56 55 50 46 48 57 51 42 34 36 62 71 58 50 47 47 41 46 33 22 18 13 17 16 27 28 26 30 19 21 28 24 23 21 14 15 14 17 18 15 17 22 24
56 57 58 53 48 52 61 59 36 52 52 60 71 66 63 60 53 52 44 44 40 27 16 11 21 21 25 27 33 32 31 27 25 26 22 22 21 22 18 22 21 21 23 24
59 55 60 55 52 55 62 50 46 57 31 63 65 46 54 56 56 50 56 49 42 37 29 11 14 20 20 24 26 30 33 30 25 27 25 26 27 23 21 21 23 26 27 32
56 55 55 55 55 59 65 68 55 52 64 40 53 72 53 45 47 57 42 50 41 41 38 25 19 11 11 14 18 24 30 29 28 23 25 24 27 30 26 26 28 33 36 36
56 56 54 56 56 63 69 69 58 53 53 45 55 55 44 47 54 53 51 43 35 42 35 30 31 33 28 20 23 19 24 28 28 20 19 8 24 27 26 27 30 30 30 27
53 54 56 56 54 60 70 66 56 52 47 46 52 46 45 36 40 47 39 40 31 32 16 29 26 19 27 29 25 24 24 26 20 14 22 22 22 22 22 24 37 25 22 19
54 55 53 58 52 61 67 64 54 51 47 40 48 40 41 42 40 35 44 32 34 32 21 17 18 15 20 12 17 26 26 25 29 18 10 10 26 23 20 16 39 31 27 22
53 56 50 56 49 60 66 60 53 48 45 34 32 48 35 38 41 39 39 40 26 30 23 23 17 26 21 18 22 24 29 27 30 28 16 19 21 19 18 17 34 21 18 15
44 54 46 50 48 61 64 59 47 50 27 45 32 30 33 42 37 42 34 31 36 29 36 24 19 15 27 24 20 29 33 30 25 29 21 15 26 25 27 23 22 23 18 14
46 39 49 40 48 59 59 55 48 49 52 18 22 25 43 31 30 26 31 43 35 44 27 29 21 19 22 27 26 26 30 33 35 29 33 32 24 26 27 25 21 18 15 13
40 39 41 43 52 49 45 44 43 45 45 37 30 26 30 31 35 34 35 36 29 31 45 36 27 16 31 28 34 32 35 32 36 31 33 33 33 32 28 25 19 15 14 12
39 39 39 48 49 46 42 43 44 38 43 41 19 17 32 33 28 33 37 39 35 29 24 36 39 31 30 25 33 29 33 34 37 37 35 33 33 31 31 24 20 18 17 16
39 37 43 45 44 39 36 33 34 37 40 27 38 16 15 27 31 29 30 30 32 32 30 35 33 31 29 30 28 38 37 35 36 38 30 27 22 25 23 20 20 19 18 19
38 41 43 42 37 32 32 27 36 38 49 27 7 26 12 17 19 25 29 31 27 26 39 35 30 29 29 27 41 37 32 35 34 26 27 28 29 22 21 23 21 21 22 21
40 39 36 32 29 28 27 22 28 30 37 31 25 15 26 26 23 22 27 31 34 33 34 37 31 27 29 37 39 33 24 29 27 23 26 31 29 22 23 23 24 23 24 25
32 31 31 32 24 26 26 16 11 34 20 32 13 15 16 28 23 19 23 30 31 38 37 36 35 31 29 34 42 39 36 29 23 25 27 30 27 30 27 25 25 26 26 27
36 33 32 27 24 28 33 14 5 8 19 15 27 13 12 21 16 19 16 24 33 32 39 35 32 33 25 24 26 30 33 35 33 32 32 29 33 31 27 27 26 26 27 29
31 28 29 25 30 37 29 25 15 17 18 24 28 20 4 6 2 1 17 21 24 26 33 29 38 39 36 37 26 19 24 26 25 28 33 30 29 27 29 28 28 29 31 32
36 25 22 26 29 29 19 10 12 11 14 20 31 17 8 7 2 5 8 5 12 13 19 27 22 30 34 35 30 30 32 30 32 33 31 29 23 20 20 24 27 32 36 35
31 28 27 30 24 14 11 10 10 13 19 13 18 25 16 13 14 8 6 9 9 10 20 19 16 25 28 25 28 32 26 27 29 29 33 33 25 25 26 31 27 30 32 34
23 28 18 13 10 11 7 12 9 11 17 19 18 19 22 23 14 8 4 7 7 16 15 11 11 19 22 22 22 29 33 18 24 16 20 22 28 26 23 23 25 26 27 27
23 9 11 9 8 9 7 4 8 15 17 18 18 18 13 8 10 8 4 5 9 4 6 5 3 7 9 9 10 13 16 17 20 20 16 14 16 16 17 17 16 19 23 23
7 12 6 8 8 7 7 10 12 13 16 15 14 14 7 12 4 3 4 3 5 7 6 6 5 8 10 7 8 9 8 8 9 9 10 12 12 12 12 12 13 16 15 15
10 10 13 12 9 10 12 13 13 13 14 12 8 7 5 4 4 4 6 5 6 6 7 8 8 8 8 7 5 5 7 9 9 9 9 8 7 7 8 9 9 11 12 14
11 15 16 15 15 15 13 11 12 13 11 9 4 4 5 6 5 6 7 9 8 7 8 8 8 6 6 6 8 7 4 1 4 6 7 5 4 5 7 8 10 11 12 13

GFSNW_700_spd_042.txt.gz
Wind_Speed
50 47 46 44 42 40 39 37 42 43 43 46 54 57 58 29 37 32 31 22 14 16 17 25 26 31 25 13 29 36 26 15 14 18 15 15 14 14 13 11 8 8 8 16
54 52 49 49 46 46 45 46 46 38 34 55 50 68 47 39 29 36 30 26 25 20 17 16 24 23 28 19 21 31 30 19 19 15 15 17 15 16 16 15 17 16 10 9
55 53 53 53 52 51 47 50 47 31 32 47 65 62 41 46 36 34 31 27 29 22 23 19 13 25 26 30 22 28 29 24 27 21 20 14 15 18 18 17 13 15 17 16
56 56 51 58 58 55 54 61 47 51 53 48 63 57 44 41 43 42 31 32 31 25 21 19 24 20 25 24 31 27 33 27 26 24 21 21 21 21 18 19 18 19 18 20
52 56 56 57 60 57 63 65 49 52 44 47 60 69 55 44 50 36 43 34 36 30 23 14 10 19 20 22 29 30 32 23 19 19 20 24 24 23 22 22 21 21 22 26
52 54 59 55 62 60 70 65 57 41 52 46 54 59 73 45 39 46 33 36 29 43 37 18 14 18 15 9 10 30 32 30 23 24 21 19 25 29 25 23 24 24 25 25
56 55 59 55 62 60 68 66 69 45 35 44 53 55 54 49 39 42 33 29 31 31 38 35 30 28 24 21 18 17 20 30 22 19 17 9 26 20 19 24 25 24 26 27
58 56 60 55 70 58 65 64 68 56 37 37 41 44 49 42 41 34 37 23 24 31 32 31 28 35 31 30 21 20 21 22 15 12 17 18 20 23 23 23 27 20 26 26
57 56 59 58 64 55 63 59 64 44 49 42 35 32 39 48 42 33 38 29 26 24 30 21 14 14 30 11 13 22 23 26 22 18 11 9 21 22 23 16 36 17 19 14
50 52 54 56 65 54 64 53 60 53 35 30 30 33 39 33 39 39 33 30 33 30 29 24 18 16 18 27 17 18 27 28 28 25 13 14 18 18 17 15 28 19 18 17
45 49 50 43 58 55 60 50 59 56 34 30 27 35 30 31 39 38 32 35 31 31 27 22 18 20 21 24 25 24 22 24 22 20 15 15 21 21 23 28 22 20 22 20
42 45 50 49 48 57 53 50 57 60 42 30 33 35 40 38 37 36 36 43 35 31 24 20 15 20 18 23 27 28 25 24 21 26 24 28 26 26 27 24 23 25 24 20
38 42 43 49 51 52 50 49 52 58 50 37 31 40 25 30 38 42 34 37 28 38 39 26 25 19 29 25 32 26 36 35 31 28 25 24 27 28 29 29 27 28 25 21
41 44 44 48 50 49 45 46 45 45 42 37 24 25 21 27 41 41 42 31 40 35 29 35 30 25 24 23 25 27 30 31 34 35 33 30 28 28 29 30 28 28 27 22
45 37 45 47 46 48 44 41 43 44 36 11 32 29 20 21 35 41 40 38 30 33 27 34 36 32 29 27 29 30 30 35 35 37 32 31 29 33 29 28 26 27 26 24
37 42 44 41 40 38 36 38 37 38 32 24 11 27 31 27 40 35 41 44 40 32 40 30 29 30 23 28 43 39 38 35 28 36 32 30 30 21 24 22 24 27 26 25
39 39 39 36 35 31 31 28 30 28 29 31 6 4 22 18 47 31 30 35 37 35 33 28 35 31 31 36 37 24 29 33 37 29 28 33 35 31 29 33 25 25 27 27
39 37 35 33 31 28 23 23 23 29 27 31 9 6 5 13 17 18 28 31 32 34 39 34 30 27 33 32 34 34 36 22 24 29 34 31 24 24 23 26 25 25 29 30
35 35 33 28 23 26 19 16 19 28 25 19 12 12 8 18 24 20 23 30 33 25 38 36 31 35 30 27 27 23 21 30 36 31 28 26 30 28 29 31 32 32 35 35
32 30 32 36 40 25 27 19 19 16 18 19 23 20 15 15 23 21 20 24 21 24 32 31 42 37 38 29 23 20 18 25 25 29 35 41 44 37 32 38 35 35 36 35
33 26 26 32 29 19 10 7 11 13 8 11 20 26 23 16 20 15 10 10 15 14 18 27 23 33 34 36 35 33 31 24 20 25 29 32 31 33 36 33 33 32 35 37
17 25 30 33 23 8 5 6 7 8 8 9 20 24 20 15 9 7 5 6 6 4 16 17 11 19 22 25 26 28 32 34 31 30 34 36 37 34 31 32 29 28 25 24
31 30 22 14 5 7 6 8 6 7 10 21 12 15 13 12 8 3 4 6 6 10 13 8 3 11 18 19 23 25 27 29 30 31 33 35 31 27 26 27 27 27 30 33
21 12 10 5 5 6 15 12 9 13 12 15 12 11 8 8 7 6 4 6 7 3 5 4 2 6 12 17 18 21 23 22 22 24 21 18 18 18 19 22 21 17 17 20
6 8 7 5 4 7 12 16 22 19 17 17 17 15 11 15 8 7 6 4 6 6 6 6 4 5 5 6 6 6 5 6 7 7 8 8 8 7 8 9 10 11 12 12
3 5 7 6 6 7 10 14 17 18 18 21 17 9 6 6 5 4 6 5 5 6 9 8 8 7 6 6 6 6 6 7 7 7 7 5 5 4 4 5 5 7 10 12
7 8 8 8 13 14 14 16 15 12 10 7 7 5 6 6 6 6 7 11 12 12 12 10 10 10 11 10 7 6 5 4 5 6 8 6 5 3 2 2 3 6 9 11

GFSNW_700_spd_045.txt.gz
Wind_Speed
45 43 43 39 39 35 34 37 45 34 36 39 45 49 65 51 33 34 32 27 28 27 18 24 28 30 30 22 32 33 30 19 18 22 21 23 21 25 23 20 17 13 12 20
53 47 44 44 41 42 41 47 44 43 35 48 49 52 66 50 41 38 34 31 24 23 22 18 25 25 27 15 31 33 30 28 21 20 18 20 21 19 19 20 16 18 12 13
51 54 51 47 47 47 48 53 47 32 41 45 40 54 61 57 42 36 37 36 27 23 22 20 10 25 21 25 18 32 32 27 31 25 27 22 25 23 23 23 18 19 22 22
48 50 57 54 52 53 56 64 44 54 54 54 54 51 51 53 57 45 32 38 36 34 27 21 22 12 21 25 29 27 30 36 30 30 25 19 24 25 26 29 26 26 22 20
47 48 54 58 54 58 63 64 49 55 39 53 47 44 52 48 51 51 47 36 35 33 30 24 23 18 16 15 26 33 26 29 32 34 27 25 24 25 26 26 25 26 25 25
51 50 50 58 65 62 69 71 65 40 52 40 46 48 49 58 45 49 49 42 33 34 28 19 15 21 26 20 11 21 28 27 29 27 26 26 30 28 27 25 26 24 27 24
53 54 54 57 61 64 66 69 66 45 40 43 44 44 43 49 48 52 44 37 37 30 32 24 21 20 25 21 14 10 19 20 29 22 20 19 23 23 25 28 29 26 26 25
54 59 56 58 61 54 56 61 67 52 42 38 41 36 37 38 45 41 45 41 29 30 20 20 18 26 29 22 29 12 17 17 20 22 24 23 23 23 20 22 24 23 25 24
51 58 58 56 58 62 83 66 59 56 40 38 33 36 35 37 45 44 36 41 34 24 21 19 24 21 21 21 13 27 22 20 23 15 20 19 27 25 17 18 28 20 19 20
51 53 60 56 56 61 72 61 59 63 49 31 24 33 32 36 43 47 32 41 35 30 28 24 26 26 24 30 24 14 22 23 26 25 15 16 18 17 20 22 26 10 12 15
52 53 58 55 55 64 64 59 55 61 49 35 31 19 28 35 39 45 45 38 37 35 26 25 22 18 27 25 27 30 15 17 19 22 25 22 17 20 22 25 23 18 18 15
53 53 52 54 54 50 58 47 47 58 37 31 28 33 31 30 33 47 36 44 41 37 30 24 20 20 20 24 21 21 31 25 17 20 20 27 25 27 24 21 20 23 21 24
46 49 52 50 55 51 49 55 45 51 55 30 24 27 27 23 38 46 47 36 35 32 29 19 20 16 23 21 28 23 28 27 32 23 22 19 17 18 17 23 24 22 25 27
45 47 46 48 49 46 54 48 43 43 41 31 15 23 26 28 32 46 46 35 37 28 30 30 25 23 21 20 21 26 28 22 32 34 34 26 25 26 23 25 24 26 25 26
43 43 48 41 44 51 52 47 46 38 36 23 27 21 21 28 41 50 40 38 41 24 34 34 31 22 18 20 23 26 25 27 29 26 22 28 30 24 31 26 29 26 23 26
45 40 36 44 48 48 44 44 37 33 43 14 7 25 24 21 15 36 50 38 37 27 28 29 22 23 22 22 34 28 27 25 29 27 22 29 28 23 24 26 34 25 22 23
40 42 43 41 40 39 42 35 33 30 35 21 9 7 16 25 16 42 52 46 38 31 32 31 20 24 30 31 28 19 22 31 35 35 33 35 30 31 31 28 31 35 31 27
39 40 40 40 39 34 32 21 17 20 29 28 11 7 18 29 29 33 41 38 40 36 28 21 26 25 25 24 27 29 27 22 25 30 35 33 37 36 33 29 36 34 32 30
38 35 31 25 22 22 23 14 13 19 21 16 25 11 14 20 26 30 39 29 38 32 40 31 18 25 19 17 21 22 29 29 33 33 31 30 32 34 31 34 32 30 29 26
30 28 26 24 22 22 18 17 21 23 27 18 19 19 20 9 17 36 39 28 24 32 25 32 28 25 23 24 21 25 28 26 27 28 28 37 39 36 34 31 34 37 39 37
31 32 27 24 27 18 9 11 12 12 11 16 19 16 23 15 13 14 22 21 23 10 16 20 16 18 30 27 34 37 31 27 27 25 23 23 28 37 39 40 39 38 39 40
26 27 30 24 10 6 4 7 4 7 8 7 13 14 17 9 6 5 14 7 13 8 13 17 15 20 30 36 38 31 32 35 36 39 37 34 32 34 32 33 38 40 41 41
25 34 14 7 3 3 3 3 3 6 10 8 7 8 14 8 3 4 6 5 6 5 8 6 1 7 12 23 30 34 33 31 33 38 40 40 39 39 38 37 35 35 34 30
19 12 9 3 4 4 8 8 4 6 12 15 13 9 8 6 9 5 5 6 6 4 5 4 6 2 6 13 17 19 22 25 26 28 29 29 29 27 27 28 25 22 19 18
9 5 4 1 3 7 8 11 10 9 12 14 10 12 7 12 6 4 5 4 6 6 4 5 6 7 3 1 5 9 11 13 13 11 9 7 8 8 9 9 8 7 5 5
4 3 4 2 2 4 6 8 8 11 15 19 18 10 7 5 5 3 6 5 5 4 7 8 10 10 10 9 9 8 8 8 7 8 8 8 7 6 5 6 6 5 3 1
1 6 4 3 4 7 9 11 14 17 22 21 9 5 4 7 6 6 6 10 12 11 11 13 16 14 13 11 10 10 10 10 11 11 10 9 9 8 7 5 4 2 2 4